| time (UTC) | temp F | wind direction | speed MPH | gust MPH | rain 1hr in | rain 24hr in | rain mn in | humidity % | barometer mb |
| 20260504024046 | 58 | 255 | 1.0 | 6.0 | 0.00 | 0.00 | 0.00 | 49 | 1011.7 |
| 20260504023543 | 58 | 75 | 1.0 | 6.0 | 0.00 | 0.00 | 0.00 | 49 | 1011.5 |
| 20260504023055 | 58 | 324 | 1.0 | 4.0 | 0.00 | 0.00 | 0.00 | 50 | 1011.6 |
| 20260504022547 | 58 | 97 | 1.0 | 5.0 | 0.00 | 0.00 | 0.00 | 49 | 1011.4 |
| 20260504022049 | 58 | 113 | 1.0 | 5.0 | 0.00 | 0.00 | 0.00 | 49 | 1011.4 |
| 20260504021552 | 58 | 219 | 2.0 | 5.0 | 0.00 | 0.00 | 0.00 | 49 | 1011.5 |
| 20260504021045 | 59 | 207 | 0.0 | 4.0 | 0.00 | 0.00 | 0.00 | 49 | 1011.5 |
| 20260504020545 | 59 | 211 | 0.0 | 4.0 | 0.00 | 0.00 | 0.00 | 48 | 1011.5 |
| 20260504020103 | 59 | 110 | 2.0 | 5.0 | 0.00 | 0.00 | 0.00 | 48 | 1011.5 |
| 20260504015545 | 59 | 120 | 1.0 | 5.0 | 0.00 | 0.00 | 0.00 | 48 | 1011.5 |
| 20260504015045 | 59 | 242 | 1.0 | 5.0 | 0.00 | 0.00 | 0.00 | 48 | 1011.4 |
| 20260504014553 | 59 | 89 | 1.0 | 4.0 | 0.00 | 0.00 | 0.00 | 47 | 1011.5 |
| 20260504014043 | 59 | 258 | 1.0 | 4.0 | 0.00 | 0.00 | 0.00 | 47 | 1011.5 |
| 20260504013543 | 60 | 170 | 0.0 | 8.0 | 0.00 | 0.00 | 0.00 | 47 | 1011.5 |
| 20260504013053 | 60 | 0 | 2.0 | 8.0 | 0.00 | 0.00 | 0.00 | 47 | 1011.4 |
| 20260504012545 | 60 | 286 | 1.0 | 6.0 | 0.00 | 0.00 | 0.00 | 47 | 1011.4 |
| 20260504012042 | 60 | 288 | 1.0 | 6.0 | 0.00 | 0.00 | 0.00 | 47 | 1011.4 |
| 20260504011548 | 60 | 262 | 1.0 | 7.0 | 0.00 | 0.00 | 0.00 | 46 | 1011.5 |
| 20260504011044 | 60 | 0 | 1.0 | 7.0 | 0.00 | 0.00 | 0.00 | 46 | 1011.3 |
| 20260504010544 | 60 | 143 | 2.0 | 7.0 | 0.00 | 0.00 | 0.00 | 46 | 1011.3 |
| 20260504010047 | 60 | 209 | 1.0 | 10.0 | 0.00 | 0.00 | 0.00 | 46 | 1011.2 |
| 20260504005543 | 60 | 154 | 2.0 | 10.0 | 0.00 | 0.00 | 0.00 | 46 | 1011.2 |
| 20260504005045 | 60 | 204 | 2.0 | 8.0 | 0.00 | 0.00 | 0.00 | 47 | 1011.0 |
| 20260504004551 | 60 | 198 | 3.0 | 8.0 | 0.00 | 0.00 | 0.00 | 47 | 1011.1 |
| 20260504004045 | 61 | 169 | 2.0 | 8.0 | 0.00 | 0.00 | 0.00 | 47 | 1011.2 |
| 20260504003544 | 61 | 255 | 2.0 | 8.0 | 0.00 | 0.00 | 0.00 | 46 | 1011.4 |
| 20260504003051 | 61 | 209 | 2.0 | 7.0 | 0.00 | 0.00 | 0.00 | 44 | 1011.7 |
| 20260504002545 | 62 | 0 | 2.0 | 6.0 | 0.00 | 0.00 | 0.00 | 43 | 1012.2 |
| 20260504002045 | 62 | 245 | 1.0 | 6.0 | 0.00 | 0.00 | 0.00 | 42 | 1012.4 |
| 20260504001559 | 62 | 254 | 1.0 | 6.0 | 0.00 | 0.00 | 0.00 | 43 | 1012.3 |
| 20260504001042 | 62 | 147 | 1.0 | 6.0 | 0.00 | 0.00 | 0.00 | 42 | 1012.4 |
| 20260504000545 | 62 | 243 | 2.0 | 6.0 | 0.00 | 0.00 | 0.00 | 42 | 1012.2 |
| 20260504000056 | 62 | 308 | 1.0 | 4.0 | 0.00 | 0.00 | 0.00 | 42 | 1012.2 |
| 20260503235543 | 62 | 240 | 1.0 | 6.0 | 0.00 | 0.00 | 0.00 | 41 | 1012.1 |
| 20260503235043 | 62 | 84 | 2.0 | 6.0 | 0.00 | 0.00 | 0.00 | 41 | 1012.2 |
| 20260503234552 | 62 | 207 | 1.0 | 6.0 | 0.00 | 0.00 | 0.00 | 40 | 1012.4 |
| 20260503234047 | 62 | 231 | 1.0 | 6.0 | 0.00 | 0.00 | 0.00 | 41 | 1012.6 |
| 20260503233545 | 62 | 331 | 2.0 | 6.0 | 0.00 | 0.00 | 0.00 | 41 | 1012.8 |
| 20260503233053 | 62 | 0 | 1.0 | 6.0 | 0.00 | 0.00 | 0.00 | 40 | 1012.7 |
| 20260503232542 | 62 | 133 | 2.0 | 6.0 | 0.00 | 0.00 | 0.00 | 40 | 1012.6 |
| 20260503232042 | 62 | 238 | 1.0 | 8.0 | 0.00 | 0.00 | 0.00 | 41 | 1012.2 |
| 20260503231549 | 62 | 230 | 2.0 | 8.0 | 0.00 | 0.00 | 0.00 | 41 | 1011.9 |
| 20260503231042 | 62 | 273 | 2.0 | 11.0 | 0.00 | 0.00 | 0.00 | 41 | 1011.9 |
| 20260503230542 | 62 | 301 | 2.0 | 13.0 | 0.00 | 0.00 | 0.00 | 41 | 1011.9 |
| 20260503225545 | 62 | 193 | 3.0 | 10.0 | 0.00 | 0.00 | 0.00 | 40 | 1012.0 |
| 20260503225041 | 63 | 261 | 2.0 | 8.0 | 0.00 | 0.00 | 0.00 | 40 | 1012.1 |
| 20260503224559 | 63 | 240 | 1.0 | 8.0 | 0.00 | 0.00 | 0.00 | 41 | 1012.1 |
| 20260503224042 | 63 | 268 | 1.0 | 9.0 | 0.00 | 0.00 | 0.00 | 39 | 1012.2 |
| 20260503223543 | 63 | 281 | 2.0 | 9.0 | 0.00 | 0.00 | 0.00 | 39 | 1012.3 |
| 20260503223048 | 63 | 132 | 2.0 | 9.0 | 0.00 | 0.00 | 0.00 | 39 | 1012.2 |
| 20260503222545 | 63 | 200 | 2.0 | 11.0 | 0.00 | 0.00 | 0.00 | 39 | 1012.3 |
| 20260503222043 | 63 | 275 | 3.0 | 11.0 | 0.00 | 0.00 | 0.00 | 38 | 1012.3 |
| 20260503221552 | 63 | 81 | 3.0 | 11.0 | 0.00 | 0.00 | 0.00 | 39 | 1012.2 |
| 20260503221042 | 63 | 259 | 5.0 | 11.0 | 0.00 | 0.00 | 0.00 | 38 | 1012.3 |
| 20260503220543 | 63 | 264 | 5.0 | 11.0 | 0.00 | 0.00 | 0.00 | 38 | 1012.5 |
| 20260503220055 | 64 | 209 | 3.0 | 10.0 | 0.00 | 0.00 | 0.00 | 37 | 1012.5 |
| 20260503215541 | 63 | 223 | 2.0 | 10.0 | 0.00 | 0.00 | 0.00 | 37 | 1012.5 |
| 20260503215042 | 63 | 255 | 3.0 | 12.0 | 0.00 | 0.00 | 0.00 | 38 | 1012.4 |
| 20260503214554 | 63 | 78 | 2.0 | 12.0 | 0.00 | 0.00 | 0.00 | 37 | 1012.4 |
| 20260503214044 | 63 | 277 | 4.0 | 12.0 | 0.00 | 0.00 | 0.00 | 38 | 1012.7 |
| 20260503213545 | 63 | 283 | 3.0 | 13.0 | 0.00 | 0.00 | 0.00 | 38 | 1012.8 |
| 20260503213101 | 63 | 85 | 3.0 | 16.0 | 0.00 | 0.00 | 0.00 | 37 | 1012.7 |
| 20260503212546 | 63 | 296 | 5.0 | 16.0 | 0.00 | 0.00 | 0.00 | 37 | 1013.0 |
| 20260503212042 | 63 | 83 | 4.0 | 11.0 | 0.00 | 0.00 | 0.00 | 38 | 1013.1 |
| 20260503211611 | 63 | 272 | 3.0 | 8.0 | 0.00 | 0.00 | 0.00 | 38 | 1012.9 |
| 20260503211042 | 63 | 79 | 3.0 | 8.0 | 0.00 | 0.00 | 0.00 | 38 | 1013.0 |
| 20260503210547 | 63 | 226 | 2.0 | 9.0 | 0.00 | 0.00 | 0.00 | 39 | 1013.5 |
| 20260503210053 | 63 | 91 | 2.0 | 9.0 | 0.00 | 0.00 | 0.00 | 37 | 1013.6 |
| 20260503205542 | 63 | 207 | 3.0 | 9.0 | 0.00 | 0.00 | 0.00 | 37 | 1013.5 |
| 20260503205043 | 63 | 27 | 2.0 | 9.0 | 0.00 | 0.00 | 0.00 | 38 | 1014.0 |
| 20260503204559 | 63 | 185 | 1.0 | 8.0 | 0.00 | 0.00 | 0.00 | 36 | 1014.4 |
| 20260503204042 | 63 | 183 | 1.0 | 10.0 | 0.00 | 0.00 | 0.00 | 38 | 1014.4 |
| 20260503203542 | 63 | 316 | 1.0 | 10.0 | 0.00 | 0.00 | 0.00 | 36 | 1014.8 |
| 20260503203056 | 64 | 278 | 2.0 | 10.0 | 0.00 | 0.00 | 0.00 | 35 | 1014.7 |
| 20260503202545 | 64 | 219 | 2.0 | 10.0 | 0.00 | 0.00 | 0.00 | 36 | 1015.0 |
| 20260503202043 | 65 | 276 | 3.0 | 9.0 | 0.00 | 0.00 | 0.00 | 35 | 1015.2 |
| 20260503201552 | 65 | 109 | 1.0 | 9.0 | 0.00 | 0.00 | 0.00 | 35 | 1015.0 |
| 20260503201046 | 65 | 1 | 1.0 | 10.0 | 0.00 | 0.00 | 0.00 | 36 | 1014.7 |
| 20260503200542 | 64 | 133 | 3.0 | 10.0 | 0.00 | 0.00 | 0.00 | 34 | 1014.7 |
| 20260503200106 | 65 | 197 | 3.0 | 9.0 | 0.00 | 0.00 | 0.00 | 33 | 1014.7 |
| 20260503195542 | 65 | 1 | 3.0 | 13.0 | 0.00 | 0.00 | 0.00 | 36 | 1014.6 |
| 20260503195043 | 64 | 226 | 3.0 | 13.0 | 0.00 | 0.00 | 0.00 | 34 | 1014.7 |
| 20260503194603 | 64 | 89 | 5.0 | 13.0 | 0.00 | 0.00 | 0.00 | 34 | 1014.7 |
| 20260503194044 | 64 | 254 | 4.0 | 11.0 | 0.00 | 0.00 | 0.00 | 35 | 1014.8 |
| 20260503193542 | 64 | 308 | 5.0 | 11.0 | 0.00 | 0.00 | 0.00 | 34 | 1015.1 |
| 20260503193104 | 64 | 98 | 3.0 | 13.0 | 0.00 | 0.00 | 0.00 | 35 | 1015.0 |
| 20260503192542 | 64 | 262 | 3.0 | 16.0 | 0.00 | 0.00 | 0.00 | 34 | 1015.0 |
| 20260503192045 | 63 | 164 | 5.0 | 16.0 | 0.00 | 0.00 | 0.00 | 35 | 1015.3 |
| 20260503191604 | 63 | 253 | 5.0 | 12.0 | 0.00 | 0.00 | 0.00 | 36 | 1015.1 |
| 20260503191045 | 64 | 136 | 5.0 | 12.0 | 0.00 | 0.00 | 0.00 | 34 | 1015.3 |
| 20260503190548 | 64 | 240 | 4.0 | 10.0 | 0.00 | 0.00 | 0.00 | 33 | 1015.3 |
| 20260503190056 | 64 | 139 | 5.0 | 10.0 | 0.00 | 0.00 | 0.00 | 38 | 1015.4 |
| 20260503185542 | 64 | 258 | 3.0 | 9.0 | 0.00 | 0.00 | 0.00 | 33 | 1015.5 |
| 20260503185044 | 64 | 213 | 2.0 | 7.0 | 0.00 | 0.00 | 0.00 | 35 | 1015.7 |
| 20260503184613 | 63 | 188 | 3.0 | 9.0 | 0.00 | 0.00 | 0.00 | 34 | 1015.8 |
| 20260503184043 | 63 | 350 | 3.0 | 11.0 | 0.00 | 0.00 | 0.00 | 38 | 1015.7 |
| 20260503183546 | 63 | 212 | 3.0 | 11.0 | 0.00 | 0.00 | 0.00 | 35 | 1015.9 |
| 20260503183055 | 63 | 203 | 2.0 | 10.0 | 0.00 | 0.00 | 0.00 | 36 | 1016.0 |
| 20260503182542 | 63 | 206 | 3.0 | 10.0 | 0.00 | 0.00 | 0.00 | 35 | 1016.5 |
| 20260503182045 | 63 | 215 | 3.0 | 9.0 | 0.00 | 0.00 | 0.00 | 35 | 1016.5 |
| 20260503181612 | 63 | 178 | 3.0 | 11.0 | 0.00 | 0.00 | 0.00 | 35 | 1016.7 |
| 20260503181045 | 62 | 199 | 3.0 | 11.0 | 0.00 | 0.00 | 0.00 | 37 | 1016.8 |
| 20260503180545 | 63 | 94 | 3.0 | 11.0 | 0.00 | 0.00 | 0.00 | 36 | 1016.8 |
| 20260503180115 | 62 | 280 | 3.0 | 11.0 | 0.00 | 0.00 | 0.00 | 37 | 1017.2 |
| 20260503175541 | 62 | 257 | 4.0 | 13.0 | 0.00 | 0.00 | 0.00 | 34 | 1017.3 |
| 20260503175042 | 62 | 265 | 4.0 | 13.0 | 0.00 | 0.00 | 0.00 | 36 | 1017.3 |
| 20260503174558 | 62 | 108 | 2.0 | 8.0 | 0.00 | 0.00 | 0.00 | 35 | 1017.4 |
| 20260503174045 | 62 | 208 | 3.0 | 8.0 | 0.00 | 0.00 | 0.00 | 35 | 1017.6 |
| 20260503173544 | 62 | 240 | 2.0 | 9.0 | 0.00 | 0.00 | 0.00 | 37 | 1017.6 |
| 20260503173102 | 62 | 236 | 2.0 | 13.0 | 0.00 | 0.00 | 0.00 | 35 | 1017.6 |
| 20260503172544 | 62 | 253 | 5.0 | 13.0 | 0.00 | 0.00 | 0.00 | 37 | 1017.5 |
| 20260503172042 | 61 | 260 | 3.0 | 15.0 | 0.00 | 0.00 | 0.00 | 36 | 1017.5 |
| 20260503171554 | 61 | 176 | 4.0 | 15.0 | 0.00 | 0.00 | 0.00 | 36 | 1017.5 |
| 20260503171042 | 61 | 270 | 4.0 | 12.0 | 0.00 | 0.00 | 0.00 | 35 | 1017.8 |
| 20260503170543 | 61 | 98 | 2.0 | 11.0 | 0.00 | 0.00 | 0.00 | 36 | 1017.6 |
| 20260503150544 | 57 | 230 | 5.0 | 11.0 | 0.00 | 0.00 | 0.00 | 36 | 1019.2 |
| 20260503150106 | 56 | 189 | 3.0 | 11.0 | 0.00 | 0.00 | 0.00 | 37 | 1019.3 |
| 20260503131041 | 45 | 176 | 1.0 | 7.0 | 0.00 | 0.00 | 0.00 | 63 | 1019.5 |
| 20260503130541 | 44 | 234 | 2.0 | 7.0 | 0.00 | 0.00 | 0.00 | 68 | 1019.6 |
| 20260503110543 | 31 | 0 | 0.0 | 0.0 | 0.00 | 0.00 | 0.00 | 95 | 1019.0 |
| 20260503081551 | 32 | 0 | 0.0 | 0.0 | 0.00 | 0.00 | 0.00 | 94 | 1018.8 |
| 20260503081045 | 33 | 0 | 0.0 | 0.0 | 0.00 | 0.00 | 0.00 | 94 | 1018.7 |
| 20260503080545 | 33 | 0 | 0.0 | 0.0 | 0.00 | 0.00 | 0.00 | 94 | 1018.6 |
| 20260503072545 | 33 | 0 | 0.0 | 0.0 | 0.00 | 0.00 | 0.00 | 93 | 1018.5 |
| 20260503072043 | 33 | 0 | 0.0 | 0.0 | 0.00 | 0.00 | 0.00 | 93 | 1018.5 |
| 20260503071600 | 33 | 0 | 0.0 | 0.0 | 0.00 | 0.00 | 0.00 | 93 | 1018.6 |
| 20260503071047 | 34 | 0 | 0.0 | 0.0 | 0.00 | 0.00 | 0.00 | 93 | 1018.5 |
| 20260503070544 | 34 | 0 | 0.0 | 0.0 | 0.00 | 0.00 | 0.00 | 92 | 1018.7 |
| 20260503055040 | 35 | 0 | 0.0 | 0.0 | 0.00 | 0.00 | 0.00 | 90 | 1019.0 |
| 20260503054553 | 35 | 0 | 0.0 | 0.0 | 0.00 | 0.00 | 0.00 | 90 | 1019.1 |
| 20260503054043 | 35 | 0 | 0.0 | 0.0 | 0.00 | 0.00 | 0.00 | 90 | 1019.2 |
| 20260503053540 | 35 | 0 | 0.0 | 0.0 | 0.00 | 0.00 | 0.00 | 90 | 1019.2 |
| 20260503053049 | 35 | 0 | 0.0 | 0.0 | 0.00 | 0.00 | 0.00 | 90 | 1019.3 |
| 20260503052544 | 36 | 0 | 0.0 | 0.0 | 0.00 | 0.00 | 0.00 | 90 | 1019.3 |
| 20260503052043 | 36 | 0 | 0.0 | 0.0 | 0.00 | 0.00 | 0.00 | 89 | 1019.2 |
| 20260503051558 | 36 | 0 | 0.0 | 0.0 | 0.00 | 0.00 | 0.00 | 89 | 1019.3 |
| 20260503051043 | 36 | 0 | 0.0 | 0.0 | 0.00 | 0.00 | 0.00 | 89 | 1019.2 |
| 20260503050546 | 36 | 0 | 0.0 | 0.0 | 0.00 | 0.00 | 0.00 | 88 | 1019.1 |
| 20260503050056 | 36 | 0 | 0.0 | 0.0 | 0.00 | 0.00 | 0.00 | 88 | 1019.1 |
| 20260503045544 | 36 | 0 | 0.0 | 0.0 | 0.00 | 0.00 | 0.00 | 88 | 1019.1 |
| 20260503045041 | 37 | 0 | 0.0 | 0.0 | 0.00 | 0.00 | 0.00 | 88 | 1019.2 |
| 20260503044608 | 37 | 0 | 0.0 | 0.0 | 0.00 | 0.00 | 0.00 | 87 | 1019.3 |
| 20260503044041 | 37 | 0 | 0.0 | 0.0 | 0.00 | 0.00 | 0.00 | 87 | 1019.4 |
| 20260503043541 | 37 | 0 | 0.0 | 0.0 | 0.00 | 0.00 | 0.00 | 86 | 1019.2 |
| 20260503043057 | 37 | 0 | 0.0 | 0.0 | 0.00 | 0.00 | 0.00 | 85 | 1019.2 |
| 20260503042542 | 37 | 0 | 0.0 | 0.0 | 0.00 | 0.00 | 0.00 | 85 | 1019.2 |
| 20260503042044 | 37 | 0 | 0.0 | 1.0 | 0.00 | 0.00 | 0.00 | 85 | 1019.1 |
| 20260503041554 | 37 | 0 | 0.0 | 1.0 | 0.00 | 0.00 | 0.00 | 84 | 1019.1 |
| 20260503041043 | 38 | 0 | 0.0 | 1.0 | 0.00 | 0.00 | 0.00 | 84 | 1019.0 |
| 20260503040543 | 38 | 0 | 0.0 | 0.0 | 0.00 | 0.00 | 0.00 | 83 | 1019.2 |
| 20260503040100 | 38 | 0 | 0.0 | 0.0 | 0.00 | 0.00 | 0.00 | 82 | 1019.1 |
| 20260503035542 | 38 | 0 | 0.0 | 0.0 | 0.00 | 0.00 | 0.00 | 82 | 1019.0 |
| 20260503035043 | 38 | 0 | 0.0 | 0.0 | 0.00 | 0.00 | 0.00 | 81 | 1019.1 |
| 20260503034558 | 38 | 0 | 0.0 | 0.0 | 0.00 | 0.00 | 0.00 | 80 | 1019.1 |
| 20260503034041 | 38 | 0 | 0.0 | 0.0 | 0.00 | 0.00 | 0.00 | 80 | 1019.0 |
| 20260503033541 | 39 | 0 | 0.0 | 0.0 | 0.00 | 0.00 | 0.00 | 79 | 1019.1 |
| 20260503033054 | 39 | 0 | 0.0 | 0.0 | 0.00 | 0.00 | 0.00 | 78 | 1019.1 |
| 20260503032542 | 39 | 0 | 0.0 | 0.0 | 0.00 | 0.00 | 0.00 | 77 | 1019.1 |
| 20260503032044 | 39 | 0 | 0.0 | 0.0 | 0.00 | 0.00 | 0.00 | 77 | 1019.0 |
| 20260503031552 | 40 | 0 | 0.0 | 0.0 | 0.00 | 0.00 | 0.00 | 76 | 1019.1 |
| 20260503031045 | 40 | 0 | 0.0 | 0.0 | 0.00 | 0.00 | 0.00 | 75 | 1019.1 |
| 20260503030544 | 40 | 0 | 0.0 | 0.0 | 0.00 | 0.00 | 0.00 | 74 | 1019.1 |
| 20260503030124 | 40 | 0 | 0.0 | 0.0 | 0.00 | 0.00 | 0.00 | 73 | 1019.2 |
| 20260503025546 | 41 | 0 | 0.0 | 0.0 | 0.00 | 0.00 | 0.00 | 72 | 1019.3 |
| 20260503025047 | 41 | 0 | 0.0 | 0.0 | 0.00 | 0.00 | 0.00 | 71 | 1019.2 |
| 20260503024604 | 41 | 0 | 0.0 | 0.0 | 0.00 | 0.00 | 0.00 | 70 | 1019.2 |